Location: Casteau
(50.5142°N, 4.0161°E)
Time: 06:16:31
(UTC+00:00)

Transit 2A - Pass Details

Date: 05 August 2021
Orbit: 594 x 964 km, 66.7° (Epoch: 24 September)

Event Time Altitude Azimuth Distance (km) Brightness Sun altitude
Rises 09:52:48 0° 313° (NW) 3,063 8.7 49.0°
Reaches altitude 10° 09:56:16 10° 339° (NNW) 2,225 8.2 49.4°
Maximum altitude 09:58:53 14° 11° (N) 2,026 8.1 49.7°
Drops below altitude 10° 10:01:37 10° 42° (NE) 2,353 8.6 50.0°
Sets 10:05:28 0° 67° (ENE) 3,375 9.5 50.4°
